Theta_e
306 298 293 297 301 300 297 294 293 296 301 298 297 299 302 305 305 305 305 306 308 311 315 318 321 324 325 327 328 327 323 322 323 322 321 320 320 321 321 320 321 321 322 323
299 293 299 301 300 298 297 294 294 297 300 297 296 296 300 302 303 305 305 306 307 308 312 316 320 322 324 326 327 328 326 324 323 322 323 323 322 322 323 322 322 321 321 323
293 296 302 299 297 295 296 294 294 294 298 299 296 294 296 301 303 305 307 308 308 308 308 313 315 320 323 325 326 327 328 326 325 324 323 322 322 320 321 322 322 322 322 323
296 300 298 297 295 297 292 298 297 295 294 287 296 285 293 297 300 302 304 305 307 309 310 311 313 313 321 324 327 328 328 328 326 325 324 322 320 318 320 321 322 323 324 323
292 295 295 295 296 299 294 299 297 296 293 292 292 288 291 296 295 298 301 303 305 308 309 310 312 314 315 323 325 327 328 328 328 326 325 324 322 321 321 321 321 322 324 324
295 300 298 297 299 299 300 296 296 295 293 284 289 288 287 292 295 299 301 302 303 306 307 309 312 313 315 317 325 325 326 327 328 328 326 325 323 322 321 321 321 322 325 325
292 293 298 300 295 300 298 292 284 283 282 282 290 288 290 297 299 299 300 301 303 304 306 306 308 308 309 311 321 324 324 324 327 328 328 326 325 324 322 323 323 323 324 325
285 283 292 298 296 293 293 292 284 274 277 280 287 283 290 299 302 303 303 304 304 304 305 306 309 310 311 311 314 322 323 323 325 326 327 328 327 326 325 325 325 325 326 327
285 285 294 296 298 297 292 289 294 284 284 283 284 290 296 299 300 300 301 301 301 304 305 306 308 308 309 310 312 314 321 324 325 325 326 327 328 327 326 326 327 327 327 328
289 283 292 295 297 297 295 296 287 286 279 278 283 282 288 293 297 300 299 299 300 301 301 304 307 308 308 309 309 312 317 321 324 325 325 326 327 328 327 327 326 327 328 328
292 287 286 291 290 289 291 290 290 290 285 279 278 283 293 294 296 296 296 297 296 296 297 298 300 302 302 304 306 308 311 315 318 323 324 324 325 326 327 327 327 327 328 327
293 289 281 286 293 295 293 291 291 283 279 284 283 284 296 297 298 298 298 298 298 297 297 298 299 299 299 300 302 302 305 307 310 314 322 322 324 325 325 325 326 327 327 327
293 287 280 284 288 291 290 292 292 291 288 284 281 283 296 296 295 297 296 297 298 300 299 299 300 298 298 298 298 299 302 303 306 311 314 317 319 322 323 324 325 325 326 325
296 288 283 280 284 289 286 290 292 290 284 284 284 287 292 294 295 297 297 296 296 296 298 298 300 301 300 298 298 298 299 301 303 309 312 314 316 320 320 321 321 322 322 321
294 284 285 287 288 288 288 288 289 288 289 285 287 288 292 294 294 295 296 296 296 297 297 298 299 300 300 299 298 298 298 300 301 306 309 313 314 316 316 316 315 315 316 317
293 282 285 278 286 287 283 287 287 289 290 290 290 289 296 296 294 293 294 295 296 297 298 300 300 301 302 303 300 299 298 299 302 305 308 308 310 310 309 309 309 308 308 309
287 284 281 280 283 283 278 284 286 286 290 290 286 291 294 289 293 294 294 295 295 295 296 297 300 302 303 304 303 300 298 299 301 302 304 305 305 304 304 304 303 302 306 304
284 280 282 274 277 274 284 289 290 288 289 290 291 291 292 293 294 295 295 295 295 296 296 296 296 299 302 303 303 300 299 299 299 300 301 300 300 299 297 297 298 298 299 300
290 286 281 276 276 277 282 285 286 285 286 291 291 292 294 293 293 293 296 297 296 296 296 296 295 295 296 298 301 300 297 296 296 296 296 295 297 296 294 295 296 294 294 292
290 289 279 273 270 268 279 287 291 290 278 291 291 291 291 292 286 289 295 297 297 297 295 295 295 294 293 293 294 294 296 294 294 293 294 293 294 294 295 293 291 289 290 288
283 283 280 278 272 275 284 288 291 275 281 291 292 291 290 288 289 293 295 293 294 293 293 294 292 291 291 289 290 290 292 294 295 291 290 290 292 291 292 290 288 288 288 288
280 277 277 278 274 271 287 288 284 289 291 289 290 289 288 289 291 289 289 289 290 289 289 289 288 288 289 287 288 288 289 293 292 290 289 289 290 290 290 289 288 288 288 287
277 282 278 279 277 286 285 283 285 285 283 281 281 282 284 285 285 286 285 285 285 285 285 286 286 286 288 287 286 286 288 290 288 287 288 288 288 288 288 289 288 288 288 288
282 286 281 281 279 278 279 277 278 278 276 276 276 277 278 278 280 280 281 280 281 282 283 284 284 284 285 286 286 285 287 288 287 287 287 287 288 287 288 288 289 289 289 288
273 279 278 280 274 277 274 272 272 273 273 273 273 274 274 275 277 277 277 277 277 279 280 281 282 283 283 284 285 285 286 287 288 287 287 287 288 288 288 288 289 289 290 291
269 266 269 269 267 268 273 272 269 269 269 270 270 270 271 273 274 274 273 274 275 275 276 277 278 278 281 283 284 285 286 286 288 288 286 288 288 288 288 288 287 291 290 291
Wind_Speed
12 10 20 26 16 13 13 15 16 13 13 13 10 14 14 10 11 14 13 12 10 9 10 12 15 14 12 12 16 18 16 16 12 9 8 7 9 7 6 5 8 8 8 9
9 21 23 9 14 16 17 18 19 9 5 4 8 14 7 9 13 16 14 13 14 12 11 12 13 15 15 16 17 18 19 18 14 11 11 9 9 7 8 6 7 8 8 10
16 20 16 18 18 17 18 19 18 13 9 5 7 12 10 11 14 14 19 15 12 11 10 12 9 15 15 16 17 17 20 20 17 16 9 6 6 4 6 8 9 10 11 10
16 20 21 21 19 17 19 16 13 11 8 7 2 9 12 7 17 20 22 19 18 17 16 13 12 7 14 17 15 15 15 16 17 18 14 16 13 13 11 10 9 10 13 13
18 14 23 21 23 19 16 12 15 16 14 10 14 9 12 7 14 22 14 13 11 20 18 19 18 17 10 14 16 16 16 16 17 19 19 15 14 12 9 9 13 13 12 15
21 10 12 22 16 17 17 3 6 12 10 12 22 16 12 15 23 24 13 12 11 15 13 14 17 14 15 11 16 17 18 19 17 17 19 19 20 16 12 13 11 11 10 10
21 22 14 13 16 15 13 11 5 8 10 11 13 10 19 19 16 12 11 13 10 11 10 8 9 8 8 10 16 15 17 20 19 19 19 21 19 18 18 16 13 12 11 10
17 16 27 19 24 16 13 14 6 7 3 7 9 7 14 19 20 22 19 19 17 10 8 7 8 7 8 9 8 16 17 19 19 20 21 19 21 14 14 14 12 11 12 12
19 18 15 8 10 16 15 17 18 7 4 5 3 8 10 13 17 7 6 6 6 6 8 10 9 7 7 7 8 9 18 18 18 20 18 20 19 19 17 18 14 12 12 10
8 10 11 23 9 12 17 8 6 5 10 12 7 5 9 2 9 10 4 5 7 8 9 9 5 5 6 8 8 8 11 17 17 17 16 16 19 18 17 14 16 15 13 12
13 6 11 10 17 18 8 7 3 1 5 4 2 5 5 5 7 8 7 5 3 2 4 6 6 6 7 7 7 8 7 8 10 15 15 16 16 18 17 16 16 16 15 14
22 2 5 27 9 8 19 15 10 6 7 2 2 9 7 7 6 7 5 2 3 5 5 4 6 6 6 7 8 7 7 5 3 6 10 13 14 15 17 17 18 15 15 13
16 4 5 2 3 5 15 17 18 10 3 6 6 8 6 3 5 8 7 8 6 6 4 4 5 6 7 5 6 6 7 7 6 6 8 7 9 13 15 15 15 14 13 12
18 6 5 9 5 10 8 17 19 18 10 17 14 21 24 20 13 13 8 7 8 9 9 10 9 5 6 6 6 6 8 7 7 7 8 6 8 11 10 9 8 10 10 10
13 11 5 9 2 7 1 10 17 19 21 11 17 18 20 12 10 8 13 13 13 12 8 8 8 9 7 6 7 7 7 6 5 6 6 8 7 7 6 8 8 8 8 9
9 5 7 5 5 5 3 7 9 17 19 15 17 18 21 11 7 8 8 10 14 18 19 19 11 9 9 9 7 8 7 7 7 8 11 7 7 7 6 6 7 7 6 6
12 6 5 14 6 6 8 20 8 7 12 15 16 21 9 3 8 8 8 9 10 12 14 17 20 18 13 11 8 8 8 5 7 8 8 8 7 7 8 7 6 6 8 6
9 8 3 4 6 10 11 10 19 18 15 14 12 12 9 7 3 5 5 5 7 8 9 13 14 18 19 16 11 8 6 8 9 10 9 7 8 8 7 6 9 6 5 6
7 5 4 5 7 6 3 3 5 10 18 16 16 15 8 5 5 6 5 5 5 5 6 9 9 11 16 17 18 12 8 7 8 10 9 9 9 9 8 9 8 5 6 5
9 5 5 3 6 9 0 2 8 4 2 7 9 8 7 5 1 4 10 9 10 12 7 11 15 14 11 16 17 18 15 9 10 8 10 7 8 10 10 8 8 3 4 6
11 6 13 4 4 6 1 4 3 8 5 2 4 8 8 3 2 5 8 10 10 10 15 14 13 12 14 10 13 16 17 15 12 6 6 7 8 8 8 7 4 7 8 7
6 7 6 4 3 4 2 6 4 1 9 10 12 14 10 8 9 9 12 12 13 17 17 13 13 13 12 10 8 14 16 16 8 6 6 7 7 7 8 11 9 10 10 9
3 5 7 6 5 5 13 14 13 16 12 13 13 13 13 11 10 11 13 15 14 14 14 11 12 18 12 7 10 11 16 17 8 5 7 7 7 8 9 11 11 11 10 9
3 1 5 7 9 12 13 15 17 17 15 14 13 11 12 13 13 12 11 13 14 14 15 14 16 15 19 14 12 9 12 15 6 5 5 5 8 8 7 7 7 8 11 10
5 8 4 8 6 5 17 16 15 14 13 14 14 12 14 13 12 13 14 14 14 15 16 15 15 16 17 16 16 14 11 12 8 6 6 6 6 9 8 7 7 8 7 9
9 8 5 3 8 7 4 14 18 17 17 16 15 16 15 13 13 15 13 13 14 16 16 16 16 17 18 18 17 16 11 9 11 8 4 8 7 7 7 8 6 6 8 11
Wind_Direction
174 183 207 211 214 229 254 242 249 246 224 255 253 238 240 238 257 271 262 266 264 269 282 209 191 195 206 192 188 188 187 186 179 193 194 196 202 194 199 194 197 191 189 192
170 216 217 206 226 230 237 251 261 272 239 306 260 266 250 245 259 265 261 254 246 250 248 274 199 192 193 204 202 191 192 187 188 192 193 198 197 202 200 194 199 199 196 195
194 210 205 204 223 231 235 238 249 270 313 319 341 284 279 270 279 268 260 261 250 253 251 245 225 195 194 205 210 204 200 190 189 191 192 189 192 191 194 202 202 204 201 200
216 221 193 208 221 215 233 230 253 268 283 254 108 275 249 245 252 247 246 246 251 244 247 249 251 237 203 203 200 214 212 204 197 188 189 200 198 200 206 201 201 204 201 203
207 202 214 202 212 208 233 223 235 232 247 261 259 264 256 202 252 248 252 257 257 239 236 238 237 237 213 197 199 204 209 214 204 198 199 196 203 210 197 194 201 206 203 204
225 194 206 221 223 207 230 215 251 241 242 238 242 225 260 245 248 266 268 260 261 247 238 233 236 231 228 203 200 201 204 206 213 209 207 206 205 205 200 198 199 204 202 199
216 224 208 207 221 202 204 200 227 220 217 232 236 225 240 268 252 270 258 261 261 269 251 247 238 221 226 205 200 199 205 212 206 210 208 207 214 211 209 205 206 200 200 201
196 207 219 209 207 200 206 189 191 211 200 249 218 232 250 237 256 245 252 258 265 288 284 284 274 249 237 232 203 207 206 214 210 208 211 210 212 215 214 210 209 208 207 203
193 225 187 217 210 200 206 215 227 289 103 290 266 296 300 264 270 267 266 247 279 286 258 250 239 236 255 263 239 212 213 213 210 210 213 213 212 215 216 215 211 210 210 201
172 215 189 197 169 239 212 165 183 179 216 228 225 258 240 279 247 247 266 49 23 2 1 347 335 314 273 267 265 262 229 200 208 211 213 215 216 215 217 217 215 214 213 200
219 175 200 188 198 189 189 191 227 81 229 188 148 230 230 116 66 81 87 82 67 319 325 333 342 319 300 294 283 259 262 214 218 210 213 213 216 216 213 215 215 213 209 200
202 159 213 207 181 223 217 204 177 182 202 225 105 254 340 79 118 121 113 149 247 231 236 226 246 238 262 269 276 269 269 272 261 264 226 219 217 221 218 213 213 210 208 200
184 189 148 136 335 298 224 219 219 224 330 193 199 261 188 174 335 332 326 323 320 302 287 248 276 254 254 261 263 253 260 256 250 242 241 222 213 214 221 218 213 206 201 200
156 140 210 199 206 141 199 207 220 217 222 236 238 263 276 288 306 309 307 322 334 332 326 317 315 301 253 250 261 250 245 234 233 223 249 221 225 213 209 208 207 203 195 185
181 213 180 268 176 63 350 228 213 213 226 220 241 245 256 262 275 309 327 334 334 333 312 292 301 303 303 268 245 256 251 246 250 250 232 249 219 231 208 199 195 190 191 187
172 219 163 225 240 120 182 257 241 221 225 241 249 260 260 270 305 307 337 352 353 345 337 330 312 296 295 295 271 255 248 223 200 224 231 211 224 194 204 196 168 160 160 161
156 129 142 227 115 50 272 217 230 257 234 223 231 242 265 355 24 344 343 31 354 341 338 338 329 304 299 298 281 261 240 219 218 228 229 206 190 209 193 169 170 179 178 152
144 125 104 129 92 221 256 182 204 217 231 236 249 271 292 86 325 295 77 39 338 330 338 338 332 332 327 311 296 268 227 205 214 224 224 203 192 199 192 187 172 165 163 165
136 118 131 156 196 292 281 212 178 189 248 241 242 260 83 68 352 282 64 30 307 307 318 320 325 333 332 330 326 295 255 233 220 219 214 204 201 195 187 187 185 151 142 135
164 175 125 161 168 210 39 320 232 125 313 31 43 64 76 31 287 284 354 343 334 335 327 331 334 329 347 332 324 318 298 254 251 224 223 194 187 189 190 169 146 118 112 119
174 173 199 185 219 285 129 333 41 107 210 69 52 54 43 33 316 316 4 339 331 329 329 330 332 326 316 318 331 324 307 283 265 245 198 187 183 175 161 139 125 127 122 120
156 145 173 138 131 290 73 33 92 223 50 40 51 39 23 355 343 6 341 334 331 327 330 333 323 321 318 313 345 330 317 301 274 223 205 184 170 168 163 146 142 135 139 140
145 175 163 138 172 75 59 76 45 47 57 25 23 21 0 348 350 341 333 329 328 320 321 324 320 313 314 325 323 337 322 316 266 208 194 186 169 172 159 156 159 145 153 155
45 69 95 106 24 65 53 45 38 37 35 17 12 3 355 339 329 331 324 326 326 325 325 326 320 317 316 328 329 299 325 319 261 234 200 177 175 162 156 159 168 167 163 160
346 334 356 93 54 94 61 49 26 18 16 7 357 350 345 332 327 333 327 324 322 317 321 320 317 315 312 319 323 312 340 328 272 257 240 209 204 173 171 177 170 180 188 181
359 12 18 58 25 332 21 7 24 8 360 351 341 334 332 323 327 328 315 313 313 316 316 315 317 316 313 316 316 317 343 329 278 263 234 228 217 200 173 170 151 169 160 158